Wind_Speed
33 33 33 34 35 36 37 38 38 39 41 41 43 45 48 51 53 56 59 63 65 69 72 76 76 76 75 77 80 84 89 95 100 101 106 111 117 120 120 116 111 105 100
34 34 34 34 35 35 36 36 38 40 41 42 44 48 51 54 57 60 62 64 68 72 75 76 75 75 77 80 85 91 97 103 109 112 114 115 112 107 100 93 87 83 79
35 34 34 34 34 34 35 37 39 40 41 44 48 51 54 57 59 60 63 67 72 74 74 74 75 77 81 86 92 98 103 109 114 117 113 105 94 84 76 68 63 59 56
34 34 33 32 33 34 35 37 38 40 44 48 51 54 56 57 60 64 68 71 73 72 72 74 77 81 86 92 98 104 110 112 111 106 97 83 70 60 55 49 43 41 40
33 31 30 31 32 34 35 36 39 43 47 51 54 55 56 60 64 68 70 71 70 71 73 76 81 87 92 98 105 110 110 106 97 87 74 61 52 46 41 38 35 33 34
28 28 29 30 31 33 35 38 42 46 50 52 54 56 60 64 67 70 70 69 71 73 76 81 87 93 98 104 109 108 100 90 79 66 56 48 43 39 37 34 33 31 30
24 26 27 29 30 33 37 41 45 49 51 54 57 60 63 66 69 69 68 70 72 76 82 87 93 98 104 107 105 94 81 70 61 53 47 42 38 36 33 30 29 29 30
22 24 26 29 33 37 41 44 48 51 54 56 59 62 65 66 66 67 69 71 76 82 88 93 98 102 105 103 92 78 63 54 49 46 44 40 36 34 32 29 27 25 28
22 25 28 32 36 40 43 47 50 52 54 57 60 63 64 63 65 67 71 75 81 87 93 98 102 104 100 90 76 61 49 43 42 42 40 37 36 35 34 32 29 26 26
24 28 32 35 39 42 45 48 50 52 55 58 61 61 61 63 66 70 75 80 86 91 96 100 102 97 85 72 59 47 39 38 37 36 35 34 35 34 35 35 33 31 31
28 31 34 37 40 43 45 48 50 53 56 58 58 59 62 65 70 75 81 86 91 95 98 98 93 81 69 57 47 39 36 35 34 32 32 32 33 33 33 34 35 35 34
30 33 36 38 41 43 46 48 52 54 54 55 57 60 65 70 74 79 85 90 95 97 96 89 77 65 54 45 38 35 34 34 32 31 31 32 32 31 31 32 32 34 35
31 34 36 38 41 44 47 49 51 52 53 55 58 62 67 73 78 84 89 93 96 95 86 74 62 52 43 37 35 33 32 31 30 30 31 31 32 31 29 28 29 30 32
32 35 37 40 42 45 47 48 49 51 53 57 61 66 71 77 82 88 92 95 93 84 71 59 50 42 37 34 34 32 31 31 32 31 31 31 32 31 29 27 25 24 24
34 36 38 41 43 45 46 47 49 52 56 60 65 70 76 81 87 93 96 92 83 71 58 47 40 35 33 33 33 33 33 33 33 33 33 32 32 31 29 26 24 22 20
35 37 39 41 43 44 45 48 51 55 60 65 71 76 82 87 93 95 90 80 68 57 47 39 34 32 31 31 31 32 33 33 33 33 33 31 30 28 27 25 22 19 16
36 38 40 42 42 43 45 49 54 60 65 71 76 81 86 91 93 88 77 66 56 46 38 33 31 31 30 30 30 31 31 32 32 31 30 29 28 27 25 23 20 17 14
37 39 40 40 41 44 48 52 58 63 68 74 79 85 89 90 85 75 64 54 45 38 32 30 29 29 29 29 30 30 30 30 29 29 28 27 25 24 23 21 17 14 11
37 38 38 40 43 47 52 57 62 67 73 78 83 87 87 81 71 63 54 42 34 30 28 28 27 27 28 28 27 27 27 27 27 27 26 25 24 22 21 19 16 13 9
36 37 39 42 47 52 57 61 66 72 77 82 86 85 78 67 59 51 41 31 27 26 25 25 25 25 25 25 25 25 26 27 27 27 26 25 24 22 20 18 15 12 8
35 38 42 47 51 56 61 66 70 75 81 85 84 77 67 57 48 37 28 23 22 22 23 23 23 22 22 22 24 25 26 27 27 27 25 24 24 23 21 18 14 11 7
38 42 47 51 56 60 65 70 75 80 84 83 75 64 56 47 36 26 20 18 18 20 20 21 20 19 19 21 22 24 26 27 26 26 25 25 25 24 22 20 15 10 6
42 46 51 55 60 65 69 74 80 84 82 74 63 54 45 35 25 17 14 15 16 18 19 19 19 19 20 21 23 24 25 25 26 25 25 25 24 24 23 21 16 10 6
46 50 55 60 64 69 73 79 83 82 74 63 53 44 34 23 14 10 10 12 15 17 18 18 19 19 20 22 24 25 26 27 27 26 26 26 26 26 25 22 17 11 7
51 55 60 64 68 73 78 82 81 74 63 53 43 33 22 12 6 5 8 11 13 15 17 19 20 21 22 23 25 26 27 28 28 28 28 28 27 27 26 24 20 14 9
55 60 64 68 73 78 82 81 74 64 53 43 33 21 10 3 1 4 7 10 13 15 17 20 21 22 24 25 26 27 28 29 29 30 30 30 30 28 26 25 22 17 13
Wind_Direction
250 253 256 260 265 270 274 279 283 285 288 290 293 296 299 300 300 299 299 300 302 303 305 306 306 306 305 305 305 306 306 306 305 305 304 303 302 300 299 297 296 294 293
251 254 258 263 268 273 278 282 285 287 289 292 296 298 300 300 300 301 302 303 304 305 306 306 306 306 307 307 307 308 308 308 307 307 306 305 303 301 299 298 297 296 295
251 255 259 265 271 277 281 284 286 289 293 296 298 299 300 302 303 304 305 305 306 306 307 307 307 308 309 309 310 310 310 310 309 309 308 307 306 304 302 302 302 301 301
251 256 261 268 274 279 283 286 289 293 296 298 299 301 302 304 305 306 306 307 307 307 308 309 309 310 310 311 311 312 312 311 310 309 309 310 310 308 309 309 310 309 308
252 257 264 271 277 282 285 289 293 296 298 299 301 303 305 306 307 307 307 308 308 309 309 310 311 311 312 313 314 314 313 312 311 311 313 314 314 315 316 316 316 315 312
255 262 269 275 280 285 290 294 296 297 299 302 303 305 306 307 307 307 308 309 309 310 310 311 312 313 314 315 316 316 314 313 313 315 317 318 319 319 321 321 321 320 316
263 269 274 279 285 290 294 296 297 299 301 303 304 306 306 307 308 308 309 310 310 311 312 312 314 315 316 317 317 315 314 313 314 317 320 321 321 323 326 327 326 324 321
269 275 281 287 291 293 295 297 299 301 302 304 305 306 307 307 308 309 310 311 311 312 313 315 316 317 317 317 316 315 315 314 316 318 321 323 325 328 329 331 331 329 326
277 283 287 290 292 295 297 299 300 302 303 304 305 306 307 308 309 310 311 312 313 314 316 316 317 317 317 316 316 316 315 315 317 319 321 324 327 330 331 331 332 334 335
283 287 289 292 294 296 298 299 301 302 304 305 306 307 308 309 310 310 311 313 315 316 317 318 318 318 317 316 317 317 315 316 318 320 322 324 326 328 330 332 335 338 340
286 289 291 293 295 297 298 300 302 303 304 306 308 309 310 311 312 313 314 316 317 318 318 318 318 317 317 317 318 318 318 320 321 322 322 322 324 327 329 332 334 336 341
288 290 292 294 296 298 300 301 302 304 306 308 309 310 311 312 314 315 317 318 318 319 319 319 318 317 317 318 318 319 320 322 322 321 321 322 323 325 327 329 332 334 340
290 292 294 296 298 300 301 303 305 307 308 309 310 311 313 315 316 318 319 319 319 320 320 319 318 318 318 318 319 320 320 320 320 321 322 323 323 324 325 327 330 334 339
293 295 296 298 300 302 304 306 307 308 309 310 312 314 316 317 318 319 319 320 320 321 320 318 319 319 319 320 321 322 322 321 321 323 324 323 323 324 325 326 327 331 337
295 297 299 301 303 305 306 308 308 309 311 313 315 317 318 319 320 320 321 322 322 321 320 320 320 320 321 323 323 324 324 325 325 324 324 324 324 324 324 325 326 329 336
298 301 303 304 306 307 308 309 311 313 315 317 319 320 321 321 321 322 323 323 322 322 322 322 322 322 324 325 325 325 325 325 324 324 324 323 323 324 324 324 324 327 334
302 304 306 306 307 308 310 313 315 317 319 320 320 321 322 322 323 323 324 323 322 323 324 325 325 326 328 329 329 329 328 327 327 326 326 326 326 326 326 325 323 324 331
305 306 307 307 310 313 315 317 318 319 320 320 321 322 322 323 324 324 324 324 323 324 326 328 329 331 332 333 334 335 335 335 334 334 333 333 332 331 330 328 324 322 327
306 307 309 312 315 317 319 320 320 321 321 322 322 322 323 324 324 324 325 325 325 327 329 331 334 336 338 340 343 346 347 347 346 344 343 341 339 337 335 334 329 324 325
308 311 314 317 319 319 320 321 321 322 322 323 323 323 324 324 324 325 326 327 329 331 333 337 340 342 346 350 355 357 356 355 354 353 351 349 347 344 341 338 335 330 329
314 316 318 319 320 320 321 322 323 323 323 323 324 324 324 325 326 328 329 332 335 337 340 344 347 350 354 359 0 359 358 357 357 358 358 358 357 355 353 349 344 339 337
318 319 320 321 321 322 323 323 324 324 324 324 324 324 325 326 329 331 335 341 345 348 352 355 358 2 5 4 2 0 360 0 2 3 4 4 3 2 0 357 353 349 349
320 321 322 323 323 323 324 324 324 324 324 324 324 324 325 326 329 335 344 353 358 2 6 11 14 15 13 10 7 5 5 6 8 8 7 6 5 4 3 3 2 3 11
321 323 324 324 324 324 324 324 324 324 324 324 323 323 324 326 330 343 359 8 13 18 21 24 25 23 18 14 12 12 13 14 14 13 12 11 11 10 10 11 13 19 39
323 324 325 325 324 325 325 324 324 324 324 323 323 322 322 323 335 7 22 25 27 29 30 31 29 26 23 20 20 20 20 20 19 19 18 16 15 15 17 20 23 32 54
325 325 325 325 325 325 325 325 325 324 323 322 321 319 315 309 66 59 48 44 41 40 39 36 34 32 30 28 28 28 28 27 26 25 25 24 22 22 24 27 32 42 61
Height
5689 5689 5690 5690 5690 5690 5689 5688 5686 5684 5681 5678 5674 5670 5665 5659 5653 5647 5640 5633 5625 5617 5608 5599 5589 5578 5569 5558 5548 5537 5524 5510 5501 5497 5484 5467 5448 5425 5404 5383 5363 5347 5335
5682 5682 5682 5682 5682 5682 5681 5679 5677 5675 5672 5668 5664 5659 5653 5647 5641 5634 5627 5619 5610 5601 5592 5582 5572 5562 5552 5541 5529 5516 5501 5485 5468 5457 5449 5431 5412 5388 5369 5352 5336 5320 5307
5674 5675 5674 5674 5674 5674 5673 5671 5669 5666 5662 5658 5653 5648 5641 5635 5628 5621 5613 5604 5595 5585 5575 5566 5556 5545 5534 5521 5508 5493 5476 5458 5438 5419 5406 5391 5376 5358 5342 5330 5316 5303 5290
5667 5667 5667 5667 5667 5666 5664 5662 5660 5656 5652 5647 5642 5636 5629 5622 5614 5607 5598 5589 5579 5569 5559 5550 5539 5527 5514 5501 5485 5468 5449 5431 5410 5390 5374 5361 5349 5337 5324 5313 5304 5293 5281
5660 5660 5660 5660 5660 5658 5656 5654 5651 5647 5642 5636 5630 5623 5616 5609 5600 5592 5583 5574 5564 5554 5544 5533 5521 5508 5493 5477 5460 5441 5421 5401 5383 5368 5355 5343 5333 5323 5313 5303 5295 5287 5276
5654 5654 5654 5653 5652 5650 5648 5645 5641 5636 5631 5625 5618 5611 5604 5595 5586 5577 5568 5559 5549 5539 5528 5516 5503 5488 5471 5455 5436 5415 5393 5374 5361 5351 5341 5331 5322 5313 5305 5295 5287 5279 5272
5648 5648 5647 5646 5644 5642 5639 5635 5631 5625 5620 5613 5607 5599 5591 5582 5572 5563 5554 5545 5534 5522 5510 5497 5483 5465 5447 5430 5413 5394 5376 5359 5347 5338 5331 5322 5314 5306 5298 5290 5282 5273 5265
5641 5641 5639 5638 5636 5633 5630 5625 5620 5615 5609 5602 5594 5586 5578 5569 5559 5550 5541 5530 5518 5505 5490 5475 5460 5443 5424 5406 5391 5377 5362 5348 5338 5330 5321 5314 5306 5299 5291 5284 5277 5271 5263
5635 5634 5632 5630 5628 5624 5620 5615 5610 5604 5597 5590 5582 5574 5565 5556 5546 5536 5526 5515 5502 5488 5471 5453 5436 5421 5404 5386 5372 5361 5350 5340 5330 5322 5314 5306 5299 5292 5285 5279 5273 5267 5261
5628 5626 5624 5622 5619 5615 5610 5605 5599 5593 5585 5578 5569 5561 5552 5543 5533 5522 5510 5499 5486 5471 5453 5433 5414 5396 5380 5366 5356 5348 5340 5332 5325 5317 5309 5302 5295 5288 5280 5273 5266 5260 5255
5621 5619 5616 5613 5610 5605 5600 5595 5588 5582 5574 5566 5558 5548 5538 5529 5518 5506 5493 5478 5464 5449 5432 5414 5395 5377 5363 5352 5344 5337 5331 5324 5318 5311 5305 5298 5291 5284 5277 5269 5261 5254 5249
5613 5611 5608 5604 5600 5595 5590 5584 5578 5570 5562 5554 5545 5535 5524 5513 5502 5490 5475 5459 5442 5427 5410 5392 5376 5363 5352 5343 5336 5329 5323 5317 5311 5305 5299 5293 5286 5280 5273 5266 5259 5251 5244
5605 5602 5599 5595 5590 5585 5579 5573 5566 5558 5550 5542 5533 5523 5512 5500 5487 5473 5458 5440 5422 5406 5388 5372 5360 5351 5343 5335 5329 5323 5317 5311 5305 5300 5293 5287 5280 5274 5269 5263 5256 5249 5242
5597 5594 5590 5586 5581 5575 5568 5561 5554 5546 5538 5529 5520 5510 5498 5484 5470 5456 5440 5422 5405 5388 5373 5360 5349 5341 5334 5328 5322 5316 5310 5304 5298 5293 5287 5281 5275 5269 5263 5258 5253 5248 5242
5589 5585 5581 5576 5570 5564 5557 5550 5543 5535 5526 5517 5507 5495 5482 5468 5452 5435 5418 5401 5386 5372 5360 5350 5341 5334 5328 5321 5315 5308 5303 5297 5291 5285 5280 5274 5268 5263 5257 5252 5248 5244 5240
5580 5576 5571 5566 5560 5554 5547 5539 5531 5523 5512 5501 5489 5476 5462 5446 5431 5415 5398 5381 5368 5358 5349 5341 5335 5328 5322 5316 5310 5303 5297 5291 5285 5279 5274 5268 5263 5258 5252 5247 5244 5240 5237
5572 5567 5562 5556 5550 5543 5537 5529 5520 5509 5496 5484 5472 5458 5442 5426 5411 5396 5381 5367 5356 5348 5341 5335 5328 5322 5316 5310 5304 5298 5292 5286 5280 5274 5268 5263 5257 5252 5248 5243 5239 5236 5234
5563 5558 5552 5546 5540 5533 5526 5517 5508 5497 5486 5471 5456 5441 5425 5408 5393 5380 5369 5358 5348 5341 5335 5330 5324 5317 5312 5306 5300 5294 5288 5281 5275 5269 5263 5258 5253 5248 5243 5239 5236 5233 5231
5553 5548 5542 5536 5530 5522 5513 5504 5493 5482 5470 5456 5442 5426 5409 5393 5378 5366 5358 5349 5342 5336 5331 5326 5320 5314 5308 5303 5297 5291 5285 5279 5273 5266 5261 5255 5250 5245 5240 5236 5233 5230 5228
5544 5539 5533 5526 5519 5510 5501 5491 5479 5467 5453 5439 5424 5410 5396 5382 5369 5358 5350 5344 5338 5333 5328 5323 5317 5312 5307 5301 5296 5290 5284 5278 5271 5265 5259 5254 5248 5243 5238 5233 5230 5228 5226
5535 5529 5523 5515 5507 5498 5488 5477 5464 5451 5437 5422 5407 5392 5381 5370 5361 5352 5346 5341 5336 5331 5326 5321 5316 5311 5306 5301 5296 5290 5284 5278 5272 5265 5259 5253 5247 5242 5236 5232 5228 5226 5224
5526 5519 5512 5504 5495 5485 5474 5462 5449 5436 5421 5407 5393 5380 5369 5361 5354 5348 5343 5339 5335 5330 5325 5320 5315 5311 5307 5302 5297 5291 5285 5279 5272 5266 5259 5253 5248 5242 5237 5232 5228 5225 5224
5516 5509 5501 5492 5482 5471 5459 5447 5434 5420 5406 5392 5380 5370 5362 5355 5350 5346 5342 5339 5335 5330 5326 5321 5317 5312 5308 5303 5298 5292 5286 5280 5273 5267 5261 5255 5249 5243 5238 5233 5228 5225 5224
5506 5498 5489 5479 5468 5457 5444 5432 5418 5404 5390 5379 5369 5362 5355 5351 5347 5345 5342 5339 5336 5332 5327 5323 5319 5315 5310 5305 5300 5294 5288 5282 5275 5270 5264 5258 5251 5245 5239 5234 5229 5226 5225
5495 5487 5477 5466 5455 5443 5430 5416 5401 5387 5376 5367 5360 5354 5350 5347 5346 5344 5342 5340 5337 5334 5330 5326 5322 5317 5313 5308 5302 5297 5291 5285 5279 5273 5267 5261 5254 5248 5242 5236 5232 5229 5228
5484 5475 5464 5452 5440 5428 5414 5399 5385 5373 5363 5356 5351 5347 5345 5345 5345 5344 5343 5341 5339 5336 5333 5329 5325 5320 5316 5311 5306 5301 5295 5290 5284 5278 5271 5265 5259 5252 5246 5241 5236 5233 5232